Regional Weather Roundup
Issued by NWS

Home | Current Version | Previous Version | Text Only | Print | Product List | Glossary Off
Versions: 1 2 3 4 5 6 7 8 9 10 11 12 13 14 15 16 17 18 19 20 21 22 23 24 25 26 27 28 29 30 31 32 33 34 35 36 37 38 39 40 41 42 43 44 45 46 47 48 49 50

000
ASUS43 KMKX 290700
RWRWI

WISCONSIN REGIONAL WEATHER ROUNDUP
NATIONAL WEATHER SERVICE MILWAUKEE/SULLIVAN WI
200 AM CDT MON AUG 29 2016

NOTE: "FAIR" INDICATES FEW OR NO CLOUDS BELOW 12,000 FEET WITH NO
SIGNIFICANT WEATHER AND/OR OBSTRUCTIONS TO VISIBILITY.

WIZ001-002-006>008-014>016-023>028-290800-
NORTHWEST WISCONSIN

CITY           SKY/WX    TMP DP  RH WIND       PRES   REMARKS
SUPERIOR ARPT  CLOUDY    64  64  99 NE8       30.14F
ASHLAND        FOG       60  60 100 CALM      30.16F VSB 1/2
HAYWARD        CLOUDY    63  61  93 CALM      30.18R
SIREN          CLOUDY    68  66  92 S6        30.15R
CUMBERLAND     MOCLDY    64  63  94 SE6       30.16F
RICE LAKE      PTCLDY    66  64  92 SE6       30.18S
CHETEK         NOT AVBL
LADYSMITH      CLOUDY    64  63  94 SE5       30.20F
EAU CLAIRE     NOT AVBL
MENOMONIE      CLEAR     66  65  97 E5        30.15F
NEW RICHMOND   CLEAR     69  68  98 SE5       30.14F
OSCEOLA        PTCLDY    70  70 100 SE8       30.15F
$$

WIZ003>005-009-010-017-018-290800-
NORTH CENTRAL WISCONSIN

CITY           SKY/WX    TMP DP  RH WIND       PRES   REMARKS
MANITOWISH WTR NOT AVBL
ARBOR VITAE    CLOUDY    62  60  93 CALM      30.22F
WOODRUFF       CLOUDY    62  60  93 CALM      30.22F
RHINELANDER    CLOUDY    61  61 100 S3        30.24F
EAGLE RIVER    PTCLDY    56  56 100 CALM      30.23F FOG
LAND O LAKES   CLEAR     54  54 100 CALM      30.24F FOG
PHILLIPS       CLOUDY    63  62  99 SE3       30.21S
TOMAHAWK       CLOUDY    57  56  97 CALM      30.23F
MEDFORD        CLEAR     62  62 100 SE3       30.22S
MERRILL        CLEAR     58  58 100 CALM      30.24R FOG
$$

WIZ029-030-035-036-043>047-290800-
CENTRAL WISCONSIN

CITY           SKY/WX    TMP DP  RH WIND       PRES   REMARKS
WAUSAU         CLEAR     63  62  97 E3        30.22S
MOSINEE        CLEAR     61  61 100 CALM      30.24S FOG
MARSHFIELD     MOCLDY    65  62  90 SE5       30.21F
STEVENS POINT  PTCLDY    61  61 100 CALM      30.23S
WAUPACA        PTCLDY    64  64  98 CALM      30.23S
WAUTOMA        MOCLDY    63  62  97 CALM      30.23
WISC RAPIDS    CLOUDY    66  65  96 SE6       30.23S
CAMP DOUGLAS   CLEAR     63  63  99 SE3       30.20F
$$

WIZ011>013-019>022-031-037>040-048>050-290800-
NORTHEAST WISCONSIN

CITY           SKY/WX    TMP DP  RH WIND       PRES   REMARKS
ANTIGO         MOCLDY    63  63 100 CALM      30.26S
SHAWANO        PTCLDY    66  63  91 CALM      30.24S
OCONTO         NOT AVBL
STURGEON BAY   CLEAR     63  62  97 CALM      30.25S
GREEN BAY      CLOUDY    63  63 100 CALM      30.24R
MANITOWOC      FOG       61  59  94 CALM      30.25R VSB 3/4
APPLETON       CLOUDY    64  64 100 SE5       30.22S
CLINTONVILLE   MOCLDY    63  63 100 CALM      30.24R FOG
OSHKOSH        MOCLDY    66  63  90 S5        30.23S
$$

WIZ032>034-041-042-053>061-290800-
SOUTHWEST WISCONSIN

CITY           SKY/WX    TMP DP  RH WIND       PRES   REMARKS
LA CROSSE      CLEAR     69  68  96 SE5       30.17F
SPARTA         CLEAR     61  61  99 CALM      30.20S
VIROQUA        CLEAR     69  69 100 SE5       30.21S
BOSCOBEL       FOG       68  67  96 CALM      30.19F VSB 1/4
PRAIRIE DU CHI MOCLDY    70  66  88 CALM      30.17F
PLATTEVILLE    CLOUDY    69  69 100 E7        30.22R
$$

WIZ056-057-062-063-064-067-068-290800-
SOUTH CENTRAL WISCONSIN

CITY           SKY/WX    TMP DP  RH WIND       PRES   REMARKS
REEDSBURG      NOT AVBL
BARABOO/DELLS  PTCLDY    65  63  94 CALM      30.21S FOG
LONE ROCK      CLOUDY    66  65  96 CALM      30.21S FOG
MINERAL POINT  MOCLDY    70  70 100 SE5       30.22S
MADISON        PTCLDY    70  68  93 SE5       30.21S
MIDDLETON      PTCLDY    71  71 100 CALM      30.22S
WATERTOWN      PTCLDY    66  66 100 CALM      30.22F
MONROE         CLOUDY    68  66  94 E3        30.22S
JANESVILLE     PTCLDY    70  68  94 CALM      30.21S
$$

WIZ051-052-058>065-066-070>072-290800-
SOUTHEAST WISCONSIN

CITY           SKY/WX    TMP DP  RH WIND       PRES   REMARKS
MILWAUKEE      MOCLDY    68  65  90 NE5       30.22F
WAUKESHA       MOCLDY    64  63  94 CALM      30.23F
MILWAUKEE/TIMM PTCLDY    66  63  88 CALM      30.24S
RACINE         PTCLDY    67  64  90 CALM      30.23F
BURLINGTON     PTCLDY    63  63  99 CALM      30.23S FOG
KENOSHA        MOCLDY    66  65  96 CALM      30.22F FOG
FOND DU LAC    CLOUDY    67  64  90 CALM      30.24S
SHEBOYGAN      FOG       60  59  96 CALM      30.24S VSB 1/2
WEST BEND      FOG       63  61  94 CALM      30.24S VSB 1/4
JUNEAU         PTCLDY    66  64  94 CALM      30.24S
$$

LSZ147-162-290800-
LAKE SUPERIOR

STATION/POSITION TIME  TEMP    WIND        PRES    WAVE
                       AIR SEA DIR/SP/G            HT/PER
                 (UTC) (F)     (DEG/KT/KT) (MB)    (FT/S)
W MID LAKE BUOY  0550   67 67  140/ 14/ 16 1020.5F   1
DEVILS ISLAND    0600   66     100/  3/  4 1020.8F
PORT WING        0640   67      20/  4/  7 1021.0R
SAXON HARBOR     0600   63     210/  4/  5 1021.0F
$$

LMZ867-665-643>646-290800-
LAKE MICHIGAN

STATION/POSITION TIME  TEMP    WIND        PRES    WAVE
                       AIR SEA DIR/SP/G            HT/PER
                 (UTC) (F)     (DEG/KT/KT) (MB)    (FT/S)
CHAMBERS ISLAND  0600   62        CALM     1024.0R
S GREEN BAY BUOY 0530   69 72  180/  6/  8 1023.1R
N MID LAKE BUOY  0550   70 71  110/  4/  6 1023.5R   0
NORTHPORT PIER   0600   66     180/  3/  4 1023.7R
KEWAUNEE LAKESHO 0600   61     300/  1/  2 1023.4R
SHEBOYGAN LAKESH 0600   65     260/  3/  3 1023.6S
PORT WASHINGTON  0600   66      CALM  /  2 1024.4
ATWATER BUOY     0600   65      10/  2/  4   N/A
MILWAUKEE LAKESH 0610   68        CALM       N/A
S MID LAKE BUOY  0550   73 75   60/  6/  6 1023.0F   1
KENOSHA   LAKESH 0600   69      30/  7/  7 1023.4S
$$

TC  - TEMPERATURE IN CELSIUS
VSB - VISIBILITY IN STATUTE MILES
WCI - WIND CHILL INDEX
HX  - HEAT INDEX





USA.gov is the U.S. government's official web portal to all federal, state and local government web resources and services.